Time,TemperatureF,DewpointF,PressureIn,WindDirection,WindDirectionDegrees,WindSpeedMPH,WindSpeedGustMPH,Humidity,HourlyPrecipIn,Conditions,Clouds,dailyrainin,SolarRadiationWatts/m^2,SoftwareType,DateUTC
2013-01-27 00:02:00,38.8,37.2,30.10,WSW,244,0.0,2.0,94,0.00,,,0.00,0.0,meteohub,2013-01-27 08:02:00,
2013-01-27 00:07:00,38.8,37.2,30.10,WSW,244,0.0,2.0,94,0.00,,,0.00,0.0,meteohub,2013-01-27 08:07:00,
2013-01-27 00:12:00,38.7,37.0,30.10,WSW,244,0.0,0.0,94,0.00,,,0.00,0.0,meteohub,2013-01-27 08:12:00,
2013-01-27 00:17:00,38.7,37.0,30.10,WSW,244,0.0,0.0,94,0.00,,,0.00,0.0,meteohub,2013-01-27 08:17:00,
2013-01-27 00:22:00,38.5,36.9,30.10,WSW,244,0.0,0.0,94,0.00,,,0.00,0.0,meteohub,2013-01-27 08:22:00,
2013-01-27 00:27:00,38.5,37.2,30.10,WSW,244,0.0,0.0,95,0.00,,,0.00,0.0,meteohub,2013-01-27 08:27:00,
2013-01-27 00:32:00,38.3,37.0,30.10,WSW,244,0.0,0.0,95,0.00,,,0.00,0.0,meteohub,2013-01-27 08:32:00,
2013-01-27 00:37:00,38.1,36.9,30.10,WSW,244,0.0,0.0,95,0.00,,,0.00,0.0,meteohub,2013-01-27 08:37:00,
2013-01-27 00:42:00,38.1,36.9,30.10,WSW,244,0.0,0.0,95,0.00,,,0.00,0.0,meteohub,2013-01-27 08:42:00,
2013-01-27 00:47:00,37.9,36.7,30.10,WSW,244,0.0,0.0,95,0.00,,,0.00,0.0,meteohub,2013-01-27 08:47:00,
2013-01-27 00:52:00,37.9,36.7,30.10,WSW,244,0.0,0.0,95,0.00,,,0.00,0.0,meteohub,2013-01-27 08:52:00,
2013-01-27 00:57:00,37.9,36.7,30.10,WSW,244,0.0,0.0,95,0.00,,,0.00,0.0,meteohub,2013-01-27 08:57:00,
2013-01-27 01:02:00,37.9,36.7,30.10,WSW,244,0.0,0.0,95,0.00,,,0.00,0.0,meteohub,2013-01-27 09:02:00,
2013-01-27 01:07:00,37.8,36.5,30.10,WSW,244,0.0,0.0,95,0.00,,,0.00,0.0,meteohub,2013-01-27 09:07:00,
2013-01-27 01:12:00,37.8,36.5,30.10,WSW,244,0.0,0.0,95,0.00,,,0.00,0.0,meteohub,2013-01-27 09:12:00,
2013-01-27 01:17:00,37.8,36.5,30.10,WSW,244,0.0,0.0,95,0.00,,,0.00,0.0,meteohub,2013-01-27 09:17:00,
2013-01-27 01:22:00,37.8,36.5,30.10,WSW,244,0.0,2.0,95,0.00,,,0.00,0.0,meteohub,2013-01-27 09:22:00,
2013-01-27 01:27:00,37.8,36.5,30.09,WSW,244,0.0,2.0,95,0.00,,,0.00,0.0,meteohub,2013-01-27 09:27:00,
2013-01-27 01:32:00,37.6,36.3,30.09,WSW,244,0.0,2.0,95,0.00,,,0.00,0.0,meteohub,2013-01-27 09:32:00,
2013-01-27 01:37:00,37.6,36.3,30.10,WSW,244,0.0,2.0,95,0.00,,,0.00,0.0,meteohub,2013-01-27 09:37:00,
2013-01-27 01:42:00,37.6,36.3,30.09,WSW,244,0.0,2.0,95,0.00,,,0.00,0.0,meteohub,2013-01-27 09:42:00,
2013-01-27 01:47:00,37.6,36.3,30.09,WSW,244,0.0,2.0,95,0.00,,,0.00,0.0,meteohub,2013-01-27 09:47:00,
2013-01-27 01:52:00,37.6,36.3,30.09,WSW,244,0.0,2.0,95,0.00,,,0.00,0.0,meteohub,2013-01-27 09:52:00,
2013-01-27 01:57:00,37.4,36.1,30.09,WSW,244,0.0,2.0,95,0.00,,,0.00,0.0,meteohub,2013-01-27 09:57:00,
2013-01-27 02:02:00,37.2,36.1,30.10,WSW,244,0.0,1.0,96,0.00,,,0.00,0.0,meteohub,2013-01-27 10:02:00,
2013-01-27 02:07:00,37.2,36.1,30.10,WSW,244,0.0,1.0,96,0.00,,,0.00,0.0,meteohub,2013-01-27 10:07:00,
2013-01-27 02:12:00,37.2,36.1,30.10,WSW,244,0.0,1.0,96,0.00,,,0.00,0.0,meteohub,2013-01-27 10:12:00,
2013-01-27 02:17:00,37.0,36.0,30.10,WSW,244,0.0,1.0,96,0.00,,,0.00,0.0,meteohub,2013-01-27 10:17:00,
2013-01-27 02:22:00,37.0,36.0,30.10,WSW,244,0.0,1.0,96,0.00,,,0.00,0.0,meteohub,2013-01-27 10:22:00,
2013-01-27 02:27:00,37.0,36.0,30.10,WSW,244,0.0,1.0,96,0.00,,,0.00,0.0,meteohub,2013-01-27 10:27:00,
2013-01-27 02:33:00,36.9,35.8,30.11,WSW,244,0.0,0.0,96,0.00,,,0.00,0.0,meteohub,2013-01-27 10:33:00,
2013-01-27 02:39:00,36.9,35.8,30.10,WSW,244,0.0,0.0,96,0.00,,,0.00,0.0,meteohub,2013-01-27 10:39:00,
2013-01-27 02:45:00,36.7,35.6,30.10,WSW,244,0.0,0.0,96,0.00,,,0.00,0.0,meteohub,2013-01-27 10:45:00,
2013-01-27 02:51:00,36.7,35.6,30.10,WSW,244,0.0,0.0,96,0.00,,,0.00,0.0,meteohub,2013-01-27 10:51:00,
2013-01-27 02:57:00,36.5,35.4,30.10,WSW,244,0.0,0.0,96,0.00,,,0.00,0.0,meteohub,2013-01-27 10:57:00,
2013-01-27 03:02:00,36.5,35.4,30.11,WSW,244,0.0,0.0,96,0.00,,,0.00,0.0,meteohub,2013-01-27 11:02:00,
2013-01-27 03:07:00,36.3,35.2,30.11,WSW,244,0.0,0.0,96,0.00,,,0.00,0.0,meteohub,2013-01-27 11:07:00,
2013-01-27 03:12:00,36.3,35.2,30.11,WSW,244,0.0,1.0,96,0.00,,,0.00,0.0,meteohub,2013-01-27 11:12:00,
2013-01-27 03:17:00,36.3,35.2,30.11,WSW,244,0.0,1.0,96,0.00,,,0.00,0.0,meteohub,2013-01-27 11:17:00,
2013-01-27 03:22:00,36.3,35.2,30.11,WSW,244,1.0,0.0,96,0.00,,,0.00,0.0,meteohub,2013-01-27 11:22:00,
2013-01-27 03:28:00,36.3,35.2,30.11,WSW,244,0.0,4.0,96,0.00,,,0.00,0.0,meteohub,2013-01-27 11:28:00,
2013-01-27 03:34:00,36.3,35.2,30.11,WSW,244,0.0,4.0,96,0.00,,,0.00,0.0,meteohub,2013-01-27 11:34:00,
2013-01-27 03:41:00,36.3,35.2,30.11,WSW,244,0.0,4.0,96,0.00,,,0.00,0.0,meteohub,2013-01-27 11:41:00,
2013-01-27 03:47:00,36.3,35.2,30.11,WSW,244,0.0,4.0,96,0.00,,,0.00,0.0,meteohub,2013-01-27 11:47:00,
2013-01-27 03:52:00,36.1,35.1,30.11,WSW,244,0.0,1.0,96,0.00,,,0.00,0.0,meteohub,2013-01-27 11:52:00,
2013-01-27 03:57:00,36.1,35.1,30.11,WSW,244,0.0,1.0,96,0.00,,,0.00,0.0,meteohub,2013-01-27 11:57:00,
2013-01-27 04:02:00,36.1,35.1,30.11,WSW,244,0.0,0.0,96,0.00,,,0.00,0.0,meteohub,2013-01-27 12:02:00,
2013-01-27 04:07:00,36.0,34.9,30.11,WSW,244,0.0,0.0,96,0.00,,,0.00,0.0,meteohub,2013-01-27 12:07:00,
2013-01-27 04:12:00,36.0,34.9,30.11,WSW,244,0.0,0.0,96,0.00,,,0.00,0.0,meteohub,2013-01-27 12:12:00,
2013-01-27 04:17:00,36.0,34.9,30.11,WSW,244,0.0,0.0,96,0.00,,,0.00,0.0,meteohub,2013-01-27 12:17:00,
2013-01-27 04:22:00,36.0,34.9,30.11,WSW,244,0.0,0.0,96,0.00,,,0.00,0.0,meteohub,2013-01-27 12:22:00,
2013-01-27 04:27:00,35.8,34.7,30.11,WSW,244,0.0,0.0,96,0.00,,,0.00,0.0,meteohub,2013-01-27 12:27:00,
2013-01-27 04:32:00,36.0,34.9,30.11,WSW,244,0.0,1.0,96,0.00,,,0.00,0.0,meteohub,2013-01-27 12:32:00,